View from above orbital plane
|
View from above satellite
|
Ground track
|
The orbit data is extracted from the following two-line orbital elements,
1 11963U 80073B 21059.01504769 .00000041 00000-0 16109-4 0 9993
2 11963 81.2735 254.0379 0075323 210.9875 148.6842 14.09729342 80989
Epoch (UTC): | 28 February 2021 00:21:40 |
Eccentricity: | 0.0075323 |
inclination: | 81.2735° |
perigee height: | 806 km |
apogee height: | 915 km |
right ascension of ascending node: | 254.0379° |
argument of perigee: | 210.9875° |
revolutions per day: | 14.09729342 |
mean anomaly at epoch: | 148.6842° |
orbit number at epoch: | 8098 |
The dashed part of the orbit path shows where the satellite is in the earth's shadow,
|
|